FW8074 Weather Reports


time (UTC)temp
C
wind
direction
speed
KPH
gust
KPH
rain 1hr
cm
rain 24hr
cm
rain mn
cm
humidity
%
barometer
mb
20260906231605 25 142 3.2 12.9 0.00 0.00 0.00 82 1009.0
20260906230106 26 101 1.6 11.3 0.00 0.00 0.00 81 1008.9
20260906224603 26 179 3.2 11.3 0.00 0.00 0.00 80 1008.8
20260906223106 26 101 1.6 11.3 0.00 0.00 0.00 79 1008.5
20260906221604 27 103 1.6 6.4 0.00 0.00 0.00 76 1007.9
20260906220104 27 0 3.2 11.3 0.00 0.00 0.00 73 1008.0
20260906214605 28 96 3.2 12.9 0.00 0.00 0.00 70 1008.1
20260906213105 28 66 1.6 8.0 0.00 0.00 0.00 69 1007.8
20260906211604 29 109 4.8 14.5 0.00 0.00 0.00 68 1008.0
20260906210108 30 7 3.2 12.9 0.00 0.00 0.00 64 1008.0
20260906204608 29 304 1.6 9.7 0.00 0.00 0.00 70 1008.1
20260906203106 29 93 4.8 14.5 0.00 0.00 0.00 72 1007.7
20260906201619 28 84 4.8 12.9 0.00 0.00 0.00 72 1008.1
20260906194621 28 305 1.6 14.5 0.00 0.00 0.00 77 1008.2
20260906193123 28 53 3.2 14.5 0.00 0.00 0.00 79 1008.1
20260906191623 28 90 4.8 17.7 0.00 0.00 0.00 77 1008.5
20260906190104 28 300 4.8 16.1 0.00 0.00 0.00 80 1008.7
20260906184610 28 176 6.4 16.1 0.00 0.00 0.00 79 1009.3
20260906183108 29 357 3.2 14.5 0.00 0.00 0.00 78 1009.5
20260906181614 29 132 1.6 17.7 0.00 0.00 0.00 77 1009.5
20260906180119 29 0 3.2 14.5 0.00 0.00 0.00 77 1009.4
20260906174608 30 69 1.6 11.3 0.00 0.00 0.00 78 1009.1
20260906173106 29 0 3.2 11.3 0.00 0.00 0.00 76 1009.2
20260906171606 30 191 3.2 14.5 0.00 0.00 0.00 76 1009.4
20260906170123 30 0 4.8 12.9 0.00 0.00 0.00 76 1009.4
20260906164605 30 93 0.0 14.5 0.00 0.00 0.00 75 1009.4
20260906163116 29 62 6.4 14.5 0.00 0.00 0.00 77 1009.6
20260906161602 29 0 1.6 16.1 0.00 0.00 0.00 75 1009.4
20260906154605 28 0 4.8 12.9 0.00 0.00 0.00 78 1009.5
20260906153104 28 0 3.2 12.9 0.00 0.00 0.00 80 1009.6
20260906151606 28 43 3.2 9.7 0.00 0.00 0.00 79 1009.9
20260906150114 28 142 0.0 9.7 0.00 0.00 0.00 79 1009.6
20260906144605 27 0 0.0 9.7 0.00 0.00 0.00 81 1009.4
20260906143104 27 0 0.0 9.7 0.00 0.00 0.00 82 1009.6
20260906141603 26 161 3.2 12.9 0.00 0.00 0.00 83 1009.6
20260906140111 26 109 3.2 11.3 0.00 0.00 0.00 85 1009.6
20260906134604 26 89 1.6 8.0 0.00 0.00 0.00 86 1009.5
20260906133136 25 123 1.6 12.9 0.00 0.00 0.00 88 1009.4
20260906131602 24 111 3.2 9.7 0.00 0.00 0.00 89 1009.4
20260906130119 23 84 3.2 8.0 0.00 0.00 0.00 92 1009.4
20260906124604 23 334 0.0 6.4 0.00 0.00 0.00 94 1009.2
20260906123108 22 0 1.6 6.4 0.00 0.00 0.00 97 1009.2
20260906121607 21 0 0.0 6.4 0.00 0.00 0.00 98 1008.9
20260906120106 21 94 0.0 3.2 0.00 0.00 0.00 98 1008.7
20260906114601 20 0 0.0 3.2 0.00 0.00 0.00 98 1008.7
20260906113108 20 0 0.0 0.0 0.00 0.00 0.00 98 1008.7
20260906111620 20 0 0.0 1.6 0.00 0.00 0.00 98 1008.6
20260906110105 20 0 0.0 0.0 0.00 0.00 0.00 98 1008.2
20260906104605 20 0 0.0 0.0 0.00 0.00 0.00 98 1007.7
20260906103105 20 0 0.0 0.0 0.00 0.00 0.00 98 1007.5
20260906101605 20 0 0.0 0.0 0.00 0.00 0.00 98 1007.6
20260906100104 20 0 0.0 1.6 0.00 0.00 0.00 97 1007.6
20260906094601 20 0 0.0 0.0 0.00 0.00 0.00 98 1007.6
20260906093108 20 0 0.0 0.0 0.00 0.00 0.00 98 1007.5
20260906091602 20 0 0.0 0.0 0.00 0.00 0.00 97 1007.3
20260906090104 20 0 0.0 0.0 0.00 0.00 0.00 97 1007.3
20260906084605 21 0 0.0 0.0 0.00 0.00 0.00 97 1007.3
20260906083106 21 0 0.0 0.0 0.00 0.00 0.00 97 1007.2
20260906081603 21 0 0.0 0.0 0.00 0.00 0.00 97 1007.1
20260906080104 21 0 0.0 1.6 0.00 0.00 0.00 97 1007.1
20260906074601 21 0 0.0 0.0 0.00 0.00 0.00 97 1007.2
20260906073104 21 0 0.0 1.6 0.00 0.00 0.00 97 1007.2
20260906071604 21 355 0.0 1.6 0.00 0.00 0.00 96 1007.4
20260906070105 21 0 0.0 1.6 0.00 0.00 0.00 96 1007.4
20260906064606 21 0 0.0 1.6 0.00 0.00 0.00 96 1007.5
20260906063107 21 0 0.0 0.0 0.00 0.00 0.00 96 1007.8
20260906061608 21 0 0.0 0.0 0.00 0.00 0.00 95 1007.6
20260906060105 21 0 0.0 1.6 0.00 0.00 0.00 95 1007.8
20260906054606 21 0 0.0 0.0 0.00 0.00 0.00 95 1007.8
20260906053105 22 0 0.0 1.6 0.00 0.00 0.00 94 1008.1
20260906051614 22 0 0.0 0.0 0.00 0.00 0.00 93 1008.4
20260906050107 22 0 0.0 1.6 0.00 0.00 0.00 93 1008.6
20260906044610 22 0 0.0 1.6 0.00 0.00 0.00 92 1008.5
20260906043104 22 0 0.0 1.6 0.00 0.00 0.00 91 1008.6
20260906041604 22 0 0.0 0.0 0.00 0.00 0.00 90 1008.7
20260906040139 22 0 0.0 0.0 0.00 0.00 0.00 90 1008.7
20260906034620 22 0 0.0 0.0 0.00 0.00 0.00 89 1008.7
20260906033108 23 0 0.0 0.0 0.00 0.00 0.00 88 1008.6
20260906031600 23 0 0.0 0.0 0.00 0.00 0.00 87 1008.6
20260906030104 23 0 0.0 0.0 0.00 0.00 0.00 86 1008.5
20260906024614 23 0 0.0 0.0 0.00 0.00 0.00 86 1008.4
20260906023106 23 0 0.0 0.0 0.00 0.00 0.00 86 1008.3
20260906021602 24 0 0.0 0.0 0.00 0.00 0.00 85 1008.0
20260906020106 24 0 0.0 0.0 0.00 0.00 0.00 85 1008.0
20260906014605 25 0 0.0 0.0 0.00 0.00 0.00 84 1008.2
20260906013119 25 0 0.0 0.0 0.00 0.00 0.00 82 1007.9
20260906011605 25 0 0.0 0.0 0.00 0.00 0.00 81 1007.9
20260906010105 25 0 0.0 3.2 0.00 0.00 0.00 80 1007.9
20260906004600 26 0 0.0 0.0 0.00 0.00 0.00 81 1008.0
20260906003104 26 0 0.0 3.2 0.00 0.00 0.00 80 1007.7
20260906001609 26 266 4.8 9.7 0.00 0.00 0.00 79 1007.8
20260906000104 26 0 0.0 0.0 0.00 0.00 0.00 80 1008.0
20260905234603 26 0 0.0 0.0 0.00 0.00 0.00 78 1008.0
20260905233104 26 0 0.0 0.0 0.00 0.00 0.00 78 1007.9